Torna al catalogo

DELTA 1 R/B

AttivoSSO
NORAD 1433·ROCKET BODY·🇺🇸 United States

Lanciato Jul 2, 1965 da Cape Canaveral Space Force Station

Loading…

Prossimi Passaggi (prossime 24 ore)

TLE

AggiornatoSource: Space-Track

Epoca: Sep 14, 2026, 10:06 UTC

1 01433U 65051B   26257.42109870  .00000508  00000-0  10881-3 0  9995
2 01433  98.5853  60.3025 0038564 359.5303   0.5855 14.62811821207872

Traccia DELTA 1 R/B in tempo reale con AllMySat

Download on the App Store